Simultaneous Nadir Overpasses (SNOs) Predictions

Prediction of SNOs between GOES-15 and LANDSAT-8 Satellite Orbit:

Table of predicted SNOs for the next 14.0 days since TLE Epoch: 3/11/2023
Index Date Time (GOES-15) GOES-15 Lat,Lon LANDSAT-8 Lat,Lon Distance(km) Time Diff (sec)
1 03/11/2023 06:36:19 0.07,-127.76 0.47,-125.74 229.79 80
2 03/11/2023 18:54:54 -0.08,-127.75 0.59,-130.90 358.87 80
3 03/13/2023 18:42:42 -0.09,-127.68 -0.01,-127.94 30.56 80
4 03/15/2023 18:33:10 -0.09,-127.60 -0.63,-124.99 297.18 80
5 03/16/2023 06:51:54 0.10,-127.58 -0.48,-130.18 295.82 80
6 03/18/2023 06:42:22 0.11,-127.50 0.17,-127.23 31.50 80
7 03/20/2023 06:30:09 0.10,-127.42 0.78,-124.27 359.07 80
8 03/20/2023 18:48:44 -0.11,-127.40 0.32,-129.42 229.39 80
9 03/22/2023 18:39:11 -0.11,-127.32 -0.31,-126.46 98.29 80
10 03/23/2023 06:57:54 0.12,-127.29 -0.83,-131.64 495.23 80
11 03/24/2023 18:26:57 -0.11,-127.24 -0.91,-123.49 425.62 80
